Flag for Germany Weather past 2 weeks in Bautzen, Saxony, Germany

Now
58 °F

Overcast.


Feels Like: 58 °F
Forecast: 49 / 67 °F
Wind: 6 mph from Southwest

Location: Goerlitz

Current Time: May 28, 2015 at 12:21:45 PM

Latest Report: May 28, 2015 at 12:00 PM


Visibility: 25 mi

Pressure: 30.04 "Hg

Humidity: 47%

Dew point: 38 °F

Location of BautzenLocation

Historic Weather in Bautzen — Graph

°F

Bautzen temperature yesterday

Maximum temperature yesterday: 53 °F (at 6:00 PM)
Minimum temperature yesterday: 47 °F (at 11:00 PM)
Average temperature yesterday: 50 °F

Past Weeks' High & Low Weather Summary

 TemperatureHumidityPressure
High69 °F (May 23, 4:00 PM)100% (May 15, 5:00 AM)30.33 "Hg (May 15, 5:00 AM)
Low35 °F (May 15, 4:00 AM)32% (May 22, 4:00 PM)29.66 "Hg (May 19, 3:00 AM)
Average54 °F68%30.03 "Hg
* Reported May 13 11:00 AM — May 28 11:00 AM, Bautzen, Weather by CustomWeather, © 2015

Note: Actual official high and low records may vary slightly from our data, if they occured in-between our weather recording intervals... More about our weather records

Advertising

Bautzen weather history for previous 24 hours

 ConditionsComfort  
Time TempWeatherWind HumidityBarometerVisibility
11:00 AM
Thu, May 28
56 °FOvercast.6 mph52%30.06 "Hg28 mi
10:00 AM56 °FPartly sunny.5 mph58%30.07 "Hg25 mi
9:00 AM54 °FPartly sunny.3 mph65%30.09 "Hg25 mi
8:00 AM50 °FOvercast.2 mph76%30.09 "Hg22 mi
7:00 AM49 °FOvercast.2 mph83%30.10 "Hg17 mi
6:00 AM46 °FOvercast.2 mph88%30.10 "Hg17 mi
5:00 AM46 °FOvercast.1 mph88%30.10 "Hg17 mi
4:00 AM46 °FOvercast.2 mph86%30.11 "Hg16 mi
3:00 AM46 °FOvercast.2 mph86%30.12 "Hg16 mi
2:00 AM47 °FOvercast.2 mph84%30.12 "Hg16 mi
1:00 AM47 °FOvercast.2 mph84%30.14 "Hg16 mi
12:00 AM46 °FOvercast.2 mph87%30.14 "Hg16 mi
11:00 PM
Wed, May 27
47 °FOvercast.2 mph79%30.14 "Hg28 mi
10:00 PM48 °FPassing clouds.2 mph77%30.14 "Hg34 mi
9:00 PM49 °FOvercast.1 mph74%30.13 "Hg28 mi
8:00 PM52 °FOvercast.2 mph66%30.13 "Hg25 mi
7:00 PM52 °FOvercast.3 mph70%30.13 "Hg25 mi
6:00 PM53 °FOvercast.5 mph68%30.12 "Hg28 mi
5:00 PM51 °FSprinkles. Overcast.5 mph69%30.13 "Hg25 mi
4:00 PM52 °FOvercast.3 mph66%30.14 "Hg31 mi
3:00 PM52 °FOvercast.2 mph65%30.14 "Hg31 mi
2:00 PM52 °FOvercast.5 mph60%30.14 "Hg31 mi
1:00 PM51 °FOvercast.3 mph60%30.14 "Hg34 mi
12:00 PM50 °FOvercast.3 mph60%30.14 "Hg34 mi
Weather by CustomWeather, © 2015

See weather overviewHow to use our weather pages